| time (UTC) | temp F | wind direction | speed knots | gust knots | rain 1hr in | rain 24hr in | rain mn in | humidity % | barometer mb |
| 20260906150544 | 49 | 306 | 3.5 | 7.0 | 0.00 | 0.00 | 0.00 | 95 | 1015.9 |
| 20260906150055 | 49 | 327 | 3.5 | 7.0 | 0.00 | 0.00 | 0.00 | 95 | 1015.9 |
| 20260906145544 | 49 | 319 | 3.5 | 6.1 | 0.00 | 0.00 | 0.00 | 95 | 1015.9 |
| 20260906145044 | 49 | 296 | 2.6 | 6.1 | 0.00 | 0.00 | 0.00 | 95 | 1015.9 |
| 20260906144559 | 49 | 300 | 2.6 | 7.0 | 0.00 | 0.00 | 0.00 | 95 | 1015.9 |
| 20260906144043 | 49 | 301 | 3.5 | 7.0 | 0.00 | 0.00 | 0.00 | 95 | 1015.8 |
| 20260906143545 | 49 | 304 | 2.6 | 7.0 | 0.00 | 0.00 | 0.00 | 95 | 1015.8 |
| 20260906143107 | 49 | 304 | 3.5 | 6.1 | 0.00 | 0.00 | 0.00 | 95 | 1015.7 |
| 20260906142545 | 49 | 303 | 2.6 | 6.1 | 0.00 | 0.00 | 0.00 | 95 | 1015.6 |
| 20260906142045 | 49 | 311 | 3.5 | 7.0 | 0.00 | 0.00 | 0.00 | 95 | 1015.4 |
| 20260906141554 | 49 | 315 | 3.5 | 7.0 | 0.00 | 0.00 | 0.00 | 95 | 1015.4 |
| 20260906141044 | 49 | 313 | 2.6 | 7.0 | 0.00 | 0.00 | 0.00 | 95 | 1015.4 |
| 20260906140544 | 49 | 306 | 3.5 | 6.1 | 0.00 | 0.00 | 0.00 | 95 | 1015.4 |
| 20260906140055 | 49 | 308 | 2.6 | 6.1 | 0.00 | 0.00 | 0.00 | 95 | 1015.4 |
| 20260906135545 | 49 | 311 | 3.5 | 6.1 | 0.00 | 0.00 | 0.00 | 95 | 1015.4 |
| 20260906135043 | 49 | 315 | 3.5 | 6.1 | 0.00 | 0.00 | 0.00 | 95 | 1015.4 |
| 20260906134601 | 49 | 309 | 2.6 | 7.0 | 0.00 | 0.00 | 0.00 | 95 | 1015.3 |
| 20260906134045 | 49 | 308 | 3.5 | 7.0 | 0.00 | 0.00 | 0.00 | 95 | 1015.4 |
| 20260906133545 | 49 | 311 | 3.5 | 7.0 | 0.00 | 0.00 | 0.00 | 95 | 1015.2 |
| 20260906133101 | 49 | 300 | 3.5 | 7.0 | 0.00 | 0.00 | 0.00 | 95 | 1015.3 |
| 20260906132545 | 49 | 311 | 3.5 | 7.0 | 0.00 | 0.00 | 0.00 | 95 | 1015.2 |
| 20260906132046 | 49 | 306 | 2.6 | 7.0 | 0.00 | 0.00 | 0.00 | 95 | 1015.3 |
| 20260906131554 | 49 | 305 | 3.5 | 7.8 | 0.00 | 0.00 | 0.00 | 95 | 1015.2 |
| 20260906131044 | 49 | 321 | 3.5 | 7.8 | 0.00 | 0.00 | 0.00 | 95 | 1015.2 |
| 20260906130547 | 49 | 310 | 2.6 | 7.0 | 0.00 | 0.00 | 0.00 | 95 | 1015.1 |
| 20260906130104 | 49 | 309 | 3.5 | 7.8 | 0.00 | 0.00 | 0.00 | 95 | 1015.2 |
| 20260906125545 | 49 | 305 | 3.5 | 7.8 | 0.00 | 0.00 | 0.00 | 95 | 1015.1 |
| 20260906125045 | 49 | 294 | 4.3 | 7.8 | 0.00 | 0.00 | 0.00 | 95 | 1015.1 |
| 20260906124559 | 49 | 315 | 3.5 | 7.0 | 0.00 | 0.00 | 0.00 | 94 | 1015.1 |
| 20260906124045 | 49 | 303 | 2.6 | 7.0 | 0.00 | 0.00 | 0.00 | 94 | 1015.1 |
| 20260906123544 | 49 | 298 | 2.6 | 7.0 | 0.00 | 0.00 | 0.00 | 94 | 1015.1 |
| 20260906123058 | 49 | 305 | 4.3 | 7.0 | 0.00 | 0.00 | 0.00 | 94 | 1015.1 |
| 20260906122548 | 49 | 313 | 3.5 | 7.0 | 0.00 | 0.00 | 0.00 | 94 | 1015.1 |
| 20260906122044 | 49 | 311 | 2.6 | 7.8 | 0.00 | 0.00 | 0.00 | 94 | 1015.1 |
| 20260906121557 | 49 | 312 | 2.6 | 7.8 | 0.00 | 0.00 | 0.00 | 94 | 1015.1 |
| 20260906121044 | 49 | 321 | 4.3 | 7.8 | 0.00 | 0.00 | 0.00 | 94 | 1015.1 |
| 20260906120544 | 49 | 305 | 6.1 | 8.7 | 0.00 | 0.00 | 0.00 | 94 | 1015.1 |
| 20260906120110 | 49 | 304 | 4.3 | 9.6 | 0.00 | 0.00 | 0.00 | 94 | 1015.1 |
| 20260906115545 | 49 | 319 | 6.1 | 9.6 | 0.00 | 0.00 | 0.00 | 94 | 1015.0 |
| 20260906115044 | 49 | 311 | 6.1 | 8.7 | 0.00 | 0.00 | 0.00 | 94 | 1015.1 |
| 20260906114602 | 49 | 298 | 6.1 | 8.7 | 0.00 | 0.00 | 0.00 | 94 | 1015.0 |
| 20260906114044 | 49 | 300 | 5.2 | 8.7 | 0.00 | 0.00 | 0.00 | 94 | 1015.0 |
| 20260906113545 | 49 | 313 | 5.2 | 8.7 | 0.00 | 0.00 | 0.00 | 94 | 1015.0 |
| 20260906113100 | 49 | 309 | 6.1 | 8.7 | 0.00 | 0.00 | 0.00 | 94 | 1014.9 |
| 20260906112544 | 49 | 316 | 5.2 | 8.7 | 0.00 | 0.00 | 0.00 | 94 | 1015.0 |
| 20260906112044 | 49 | 305 | 4.3 | 8.7 | 0.00 | 0.00 | 0.00 | 94 | 1015.0 |
| 20260906111607 | 49 | 306 | 6.1 | 8.7 | 0.00 | 0.00 | 0.00 | 93 | 1014.8 |
| 20260906111044 | 49 | 298 | 5.2 | 7.8 | 0.00 | 0.00 | 0.00 | 93 | 1014.9 |
| 20260906110547 | 49 | 311 | 3.5 | 7.8 | 0.00 | 0.00 | 0.00 | 93 | 1014.9 |
| 20260906110050 | 49 | 314 | 3.5 | 7.8 | 0.00 | 0.00 | 0.00 | 93 | 1014.8 |
| 20260906105544 | 49 | 311 | 2.6 | 7.0 | 0.00 | 0.00 | 0.00 | 93 | 1014.8 |
| 20260906105044 | 49 | 302 | 4.3 | 7.0 | 0.00 | 0.00 | 0.00 | 93 | 1014.9 |
| 20260906104559 | 50 | 303 | 3.5 | 7.0 | 0.00 | 0.00 | 0.00 | 93 | 1014.7 |
| 20260906104045 | 50 | 307 | 3.5 | 7.0 | 0.00 | 0.00 | 0.00 | 93 | 1014.8 |
| 20260906103546 | 50 | 317 | 4.3 | 8.7 | 0.00 | 0.00 | 0.00 | 93 | 1014.8 |
| 20260906103058 | 50 | 303 | 4.3 | 8.7 | 0.00 | 0.00 | 0.00 | 92 | 1014.8 |
| 20260906102545 | 50 | 296 | 7.0 | 8.7 | 0.00 | 0.00 | 0.00 | 92 | 1014.8 |
| 20260906102048 | 50 | 305 | 6.1 | 8.7 | 0.00 | 0.00 | 0.00 | 92 | 1014.8 |
| 20260906101552 | 50 | 302 | 5.2 | 7.8 | 0.00 | 0.00 | 0.00 | 91 | 1015.0 |
| 20260906101044 | 50 | 313 | 5.2 | 7.8 | 0.00 | 0.00 | 0.00 | 91 | 1015.0 |
| 20260906100544 | 51 | 311 | 5.2 | 7.8 | 0.00 | 0.00 | 0.00 | 90 | 1014.9 |
| 20260906100233 | 51 | 311 | 6.1 | 7.8 | 0.00 | 0.00 | 0.00 | 89 | 1014.9 |
| 20260906095545 | 51 | 310 | 5.2 | 7.8 | 0.00 | 0.00 | 0.00 | 88 | 1014.9 |
| 20260906095045 | 52 | 312 | 5.2 | 7.8 | 0.00 | 0.00 | 0.00 | 87 | 1015.0 |
| 20260906094557 | 52 | 311 | 4.3 | 7.0 | 0.00 | 0.00 | 0.00 | 85 | 1014.9 |
| 20260906094045 | 53 | 318 | 5.2 | 7.0 | 0.00 | 0.00 | 0.00 | 80 | 1014.8 |
| 20260906093545 | 54 | 309 | 4.3 | 6.1 | 0.00 | 0.00 | 0.00 | 76 | 1014.9 |
| 20260906093058 | 55 | 306 | 3.5 | 5.2 | 0.00 | 0.00 | 0.00 | 68 | 1014.9 |
| 20260906092547 | 56 | 318 | 2.6 | 5.2 | 0.00 | 0.00 | 0.00 | 61 | 1015.0 |
| 20260906092046 | 57 | 319 | 3.5 | 5.2 | 0.00 | 0.00 | 0.00 | 57 | 1015.0 |
| 20260906091600 | 57 | 317 | 3.5 | 6.1 | 0.00 | 0.00 | 0.00 | 57 | 1014.9 |
| 20260906091047 | 57 | 313 | 3.5 | 7.0 | 0.00 | 0.00 | 0.00 | 57 | 1015.1 |
| 20260906090543 | 56 | 317 | 4.3 | 7.0 | 0.00 | 0.00 | 0.00 | 57 | 1015.0 |
| 20260906090057 | 56 | 322 | 3.5 | 7.0 | 0.00 | 0.00 | 0.00 | 59 | 1015.0 |
| 20260906085543 | 56 | 326 | 3.5 | 7.0 | 0.00 | 0.00 | 0.00 | 60 | 1015.1 |
| 20260906085044 | 56 | 321 | 3.5 | 7.0 | 0.00 | 0.00 | 0.00 | 62 | 1015.1 |
| 20260906084558 | 56 | 314 | 4.3 | 7.0 | 0.00 | 0.00 | 0.00 | 60 | 1015.0 |
| 20260906084048 | 56 | 311 | 4.3 | 6.1 | 0.00 | 0.00 | 0.00 | 59 | 1015.1 |
| 20260906083544 | 56 | 311 | 3.5 | 6.1 | 0.00 | 0.00 | 0.00 | 61 | 1015.1 |
| 20260906083055 | 56 | 314 | 3.5 | 6.1 | 0.00 | 0.00 | 0.00 | 60 | 1015.2 |
| 20260906082544 | 55 | 316 | 3.5 | 6.1 | 0.00 | 0.00 | 0.00 | 62 | 1015.2 |
| 20260906082049 | 55 | 321 | 2.6 | 4.3 | 0.00 | 0.00 | 0.00 | 65 | 1015.2 |
| 20260906081559 | 54 | 321 | 3.5 | 4.3 | 0.00 | 0.00 | 0.00 | 68 | 1015.2 |
| 20260906081044 | 54 | 320 | 3.5 | 4.3 | 0.00 | 0.00 | 0.00 | 72 | 1015.4 |
| 20260906080544 | 54 | 319 | 3.5 | 4.3 | 0.00 | 0.00 | 0.00 | 73 | 1015.3 |
| 20260906080057 | 54 | 319 | 2.6 | 4.3 | 0.00 | 0.00 | 0.00 | 76 | 1015.3 |
| 20260906075545 | 54 | 321 | 2.6 | 5.2 | 0.00 | 0.00 | 0.00 | 77 | 1015.4 |
| 20260906075045 | 55 | 323 | 2.6 | 7.8 | 0.00 | 0.00 | 0.00 | 75 | 1015.4 |
| 20260906074601 | 56 | 323 | 5.2 | 7.8 | 0.00 | 0.00 | 0.00 | 70 | 1015.4 |
| 20260906074044 | 56 | 316 | 3.5 | 7.8 | 0.00 | 0.00 | 0.00 | 67 | 1015.3 |
| 20260906073545 | 56 | 313 | 4.3 | 7.8 | 0.00 | 0.00 | 0.00 | 66 | 1015.4 |
| 20260906073054 | 55 | 316 | 5.2 | 7.8 | 0.00 | 0.00 | 0.00 | 67 | 1015.3 |
| 20260906072545 | 55 | 309 | 4.3 | 7.0 | 0.00 | 0.00 | 0.00 | 72 | 1015.2 |
| 20260906072045 | 55 | 304 | 4.3 | 6.1 | 0.00 | 0.00 | 0.00 | 73 | 1015.3 |
| 20260906071600 | 55 | 314 | 2.6 | 4.3 | 0.00 | 0.00 | 0.00 | 76 | 1015.3 |
| 20260906071047 | 55 | 315 | 3.5 | 4.3 | 0.00 | 0.00 | 0.00 | 75 | 1015.3 |
| 20260906070544 | 55 | 319 | 2.6 | 4.3 | 0.00 | 0.00 | 0.00 | 74 | 1015.3 |
| 20260906070056 | 55 | 317 | 2.6 | 7.0 | 0.00 | 0.00 | 0.00 | 74 | 1015.3 |
| 20260906065544 | 55 | 321 | 3.5 | 7.0 | 0.00 | 0.00 | 0.00 | 75 | 1015.3 |
| 20260906065045 | 54 | 311 | 4.3 | 7.0 | 0.00 | 0.00 | 0.00 | 75 | 1015.3 |
| 20260906064559 | 54 | 319 | 4.3 | 7.0 | 0.00 | 0.00 | 0.00 | 77 | 1015.3 |
| 20260906064044 | 54 | 317 | 3.5 | 7.8 | 0.00 | 0.00 | 0.00 | 78 | 1015.3 |
| 20260906063543 | 54 | 321 | 4.3 | 7.8 | 0.00 | 0.00 | 0.00 | 78 | 1015.3 |
| 20260906063058 | 54 | 312 | 5.2 | 7.8 | 0.00 | 0.00 | 0.00 | 78 | 1015.4 |
| 20260906062548 | 54 | 313 | 4.3 | 7.8 | 0.00 | 0.00 | 0.00 | 78 | 1015.4 |
| 20260906062044 | 54 | 293 | 3.5 | 7.0 | 0.00 | 0.00 | 0.00 | 78 | 1015.4 |
| 20260906061556 | 54 | 314 | 4.3 | 7.0 | 0.00 | 0.00 | 0.00 | 79 | 1015.3 |
| 20260906061044 | 54 | 309 | 3.5 | 7.0 | 0.00 | 0.00 | 0.00 | 79 | 1015.4 |
| 20260906060544 | 54 | 310 | 3.5 | 5.2 | 0.00 | 0.00 | 0.00 | 79 | 1015.4 |
| 20260906060106 | 54 | 322 | 3.5 | 7.0 | 0.00 | 0.00 | 0.00 | 79 | 1015.4 |
| 20260906055545 | 54 | 317 | 4.3 | 7.0 | 0.00 | 0.00 | 0.00 | 78 | 1015.4 |
| 20260906055044 | 54 | 313 | 4.3 | 7.0 | 0.00 | 0.00 | 0.00 | 78 | 1015.4 |
| 20260906054558 | 53 | 311 | 5.2 | 7.0 | 0.00 | 0.00 | 0.00 | 79 | 1015.5 |
| 20260906054045 | 53 | 317 | 4.3 | 7.0 | 0.00 | 0.00 | 0.00 | 82 | 1015.5 |
| 20260906053544 | 53 | 319 | 3.5 | 6.1 | 0.00 | 0.00 | 0.00 | 84 | 1015.5 |
| 20260906053058 | 53 | 317 | 3.5 | 5.2 | 0.00 | 0.00 | 0.00 | 85 | 1015.6 |
| 20260906052602 | 53 | 320 | 3.5 | 7.0 | 0.00 | 0.00 | 0.00 | 85 | 1015.6 |
| 20260906052045 | 53 | 308 | 2.6 | 7.0 | 0.00 | 0.00 | 0.00 | 85 | 1015.6 |
| 20260906051603 | 53 | 315 | 2.6 | 5.2 | 0.00 | 0.00 | 0.00 | 85 | 1015.6 |
| 20260906051044 | 53 | 317 | 1.7 | 4.3 | 0.00 | 0.00 | 0.00 | 87 | 1015.7 |
| 20260906050544 | 53 | 323 | 1.7 | 4.3 | 0.00 | 0.00 | 0.00 | 86 | 1015.7 |
| 20260906050106 | 53 | 323 | 2.6 | 4.3 | 0.00 | 0.00 | 0.00 | 86 | 1015.6 |
| 20260906045547 | 54 | 327 | 1.7 | 3.5 | 0.00 | 0.00 | 0.00 | 84 | 1015.6 |
| 20260906045047 | 53 | 327 | 1.7 | 3.5 | 0.00 | 0.00 | 0.00 | 83 | 1015.6 |
| 20260906044559 | 53 | 327 | 2.6 | 4.3 | 0.00 | 0.00 | 0.00 | 83 | 1015.6 |
| 20260906044045 | 53 | 327 | 1.7 | 6.1 | 0.00 | 0.00 | 0.00 | 84 | 1015.6 |
| 20260906043545 | 54 | 331 | 2.6 | 6.1 | 0.00 | 0.00 | 0.00 | 84 | 1015.6 |
| 20260906043056 | 54 | 318 | 3.5 | 6.1 | 0.00 | 0.00 | 0.00 | 85 | 1015.6 |
| 20260906042545 | 54 | 316 | 3.5 | 7.0 | 0.00 | 0.00 | 0.00 | 84 | 1015.5 |
| 20260906042044 | 54 | 312 | 4.3 | 7.0 | 0.00 | 0.00 | 0.00 | 82 | 1015.4 |
| 20260906041557 | 54 | 315 | 3.5 | 7.0 | 0.00 | 0.00 | 0.00 | 81 | 1015.4 |
| 20260906041044 | 54 | 308 | 3.5 | 7.0 | 0.00 | 0.00 | 0.00 | 81 | 1015.3 |
| 20260906040544 | 54 | 315 | 4.3 | 7.0 | 0.00 | 0.00 | 0.00 | 81 | 1015.2 |
| 20260906040115 | 54 | 319 | 4.3 | 7.8 | 0.00 | 0.00 | 0.00 | 81 | 1015.3 |
| 20260906035543 | 54 | 313 | 4.3 | 7.8 | 0.00 | 0.00 | 0.00 | 83 | 1015.2 |
| 20260906035046 | 54 | 313 | 4.3 | 7.8 | 0.00 | 0.00 | 0.00 | 82 | 1015.2 |
| 20260906034559 | 54 | 303 | 3.5 | 7.8 | 0.00 | 0.00 | 0.00 | 82 | 1015.2 |
| 20260906034044 | 55 | 320 | 4.3 | 7.8 | 0.00 | 0.00 | 0.00 | 82 | 1015.1 |
| 20260906033545 | 55 | 311 | 4.3 | 7.8 | 0.00 | 0.00 | 0.00 | 81 | 1015.1 |
| 20260906033100 | 55 | 313 | 4.3 | 7.8 | 0.00 | 0.00 | 0.00 | 81 | 1015.0 |
| 20260906032546 | 55 | 296 | 4.3 | 7.0 | 0.00 | 0.00 | 0.00 | 81 | 1015.0 |
| 20260906032044 | 55 | 290 | 4.3 | 7.0 | 0.00 | 0.00 | 0.00 | 80 | 1014.9 |
| 20260906031606 | 55 | 298 | 3.5 | 7.0 | 0.00 | 0.00 | 0.00 | 80 | 1015.0 |
| 20260906031044 | 56 | 301 | 3.5 | 7.0 | 0.00 | 0.00 | 0.00 | 79 | 1014.9 |
| 20260906030544 | 56 | 293 | 2.6 | 7.0 | 0.00 | 0.00 | 0.00 | 79 | 1014.9 |
| 20260906025545 | 56 | 300 | 2.6 | 6.1 | 0.00 | 0.00 | 0.00 | 77 | 1015.0 |
| 20260906025044 | 57 | 288 | 2.6 | 7.0 | 0.00 | 0.00 | 0.00 | 76 | 1014.9 |
| 20260906024618 | 57 | 295 | 2.6 | 7.0 | 0.00 | 0.00 | 0.00 | 76 | 1014.9 |
| 20260906024043 | 57 | 300 | 3.5 | 7.0 | 0.00 | 0.00 | 0.00 | 76 | 1015.0 |
| 20260906023545 | 57 | 292 | 3.5 | 6.1 | 0.00 | 0.00 | 0.00 | 76 | 1015.1 |
| 20260906023055 | 58 | 307 | 2.6 | 7.8 | 0.00 | 0.00 | 0.00 | 75 | 1015.1 |
| 20260906022547 | 58 | 298 | 3.5 | 7.8 | 0.00 | 0.00 | 0.00 | 75 | 1015.1 |
| 20260906022044 | 58 | 305 | 4.3 | 7.8 | 0.00 | 0.00 | 0.00 | 76 | 1015.1 |
| 20260906021611 | 58 | 311 | 3.5 | 7.8 | 0.00 | 0.00 | 0.00 | 76 | 1015.2 |
| 20260906021044 | 59 | 299 | 5.2 | 7.8 | 0.00 | 0.00 | 0.00 | 75 | 1015.2 |
| 20260906020544 | 59 | 305 | 5.2 | 7.8 | 0.00 | 0.00 | 0.00 | 75 | 1015.2 |
| 20260906020106 | 59 | 312 | 4.3 | 7.8 | 0.00 | 0.00 | 0.00 | 75 | 1015.2 |
| 20260906015544 | 60 | 298 | 3.5 | 7.0 | 0.00 | 0.00 | 0.00 | 74 | 1015.1 |
| 20260906015048 | 60 | 296 | 2.6 | 7.0 | 0.00 | 0.00 | 0.00 | 73 | 1015.3 |
| 20260906014612 | 60 | 313 | 3.5 | 8.7 | 0.00 | 0.00 | 0.00 | 73 | 1015.3 |
| 20260906014044 | 60 | 302 | 5.2 | 8.7 | 0.00 | 0.00 | 0.00 | 71 | 1015.2 |
| 20260906013544 | 60 | 292 | 4.3 | 8.7 | 0.00 | 0.00 | 0.00 | 70 | 1015.3 |
| 20260906013100 | 61 | 311 | 3.5 | 8.7 | 0.00 | 0.00 | 0.00 | 69 | 1015.3 |
| 20260906012544 | 61 | 301 | 3.5 | 7.8 | 0.00 | 0.00 | 0.00 | 69 | 1015.2 |
| 20260906012046 | 61 | 322 | 3.5 | 7.8 | 0.00 | 0.00 | 0.00 | 68 | 1015.1 |
| 20260906011559 | 61 | 299 | 3.5 | 7.0 | 0.00 | 0.00 | 0.00 | 69 | 1015.3 |
| 20260906011044 | 61 | 295 | 3.5 | 7.8 | 0.00 | 0.00 | 0.00 | 69 | 1015.3 |
| 20260906010543 | 61 | 300 | 3.5 | 7.8 | 0.00 | 0.00 | 0.00 | 67 | 1015.3 |
| 20260906010113 | 61 | 290 | 4.3 | 8.7 | 0.00 | 0.00 | 0.00 | 67 | 1015.3 |
| 20260906005546 | 61 | 284 | 3.5 | 8.7 | 0.00 | 0.00 | 0.00 | 67 | 1015.1 |
| 20260906005044 | 62 | 309 | 4.3 | 7.8 | 0.00 | 0.00 | 0.00 | 66 | 1015.3 |
| 20260906004610 | 62 | 311 | 3.5 | 7.8 | 0.00 | 0.00 | 0.00 | 65 | 1015.2 |
| 20260906004044 | 62 | 305 | 2.6 | 8.7 | 0.00 | 0.00 | 0.00 | 64 | 1015.3 |
| 20260906003544 | 62 | 313 | 4.3 | 8.7 | 0.00 | 0.00 | 0.00 | 62 | 1015.2 |
| 20260906003118 | 63 | 291 | 5.2 | 9.6 | 0.00 | 0.00 | 0.00 | 61 | 1015.3 |
| 20260906002543 | 63 | 317 | 5.2 | 9.6 | 0.00 | 0.00 | 0.00 | 60 | 1015.2 |
| 20260906002046 | 63 | 311 | 5.2 | 7.8 | 0.00 | 0.00 | 0.00 | 58 | 1015.2 |
| 20260906001559 | 64 | 313 | 4.3 | 9.6 | 0.00 | 0.00 | 0.00 | 57 | 1015.2 |
| 20260906001043 | 64 | 296 | 5.2 | 11.3 | 0.00 | 0.00 | 0.00 | 57 | 1015.2 |
| 20260906000545 | 64 | 298 | 6.1 | 11.3 | 0.00 | 0.00 | 0.00 | 56 | 1015.2 |
| 20260906000103 | 64 | 313 | 7.0 | 11.3 | 0.00 | 0.00 | 0.00 | 56 | 1015.1 |
| 20260905235544 | 65 | 299 | 7.0 | 10.4 | 0.00 | 0.00 | 0.00 | 55 | 1015.1 |
| 20260905235044 | 65 | 305 | 5.2 | 9.6 | 0.00 | 0.00 | 0.00 | 55 | 1015.2 |
| 20260905234609 | 65 | 300 | 5.2 | 8.7 | 0.00 | 0.00 | 0.00 | 55 | 1015.2 |
| 20260905234046 | 65 | 307 | 4.3 | 8.7 | 0.00 | 0.00 | 0.00 | 54 | 1015.2 |
| 20260905233544 | 65 | 308 | 3.5 | 7.8 | 0.00 | 0.00 | 0.00 | 55 | 1015.2 |
| 20260905233101 | 65 | 296 | 3.5 | 8.7 | 0.00 | 0.00 | 0.00 | 56 | 1015.1 |
| 20260905232543 | 64 | 321 | 4.3 | 10.4 | 0.00 | 0.00 | 0.00 | 56 | 1015.2 |
| 20260905232045 | 64 | 297 | 5.2 | 10.4 | 0.00 | 0.00 | 0.00 | 58 | 1015.2 |
| 20260905231557 | 64 | 313 | 5.2 | 10.4 | 0.00 | 0.00 | 0.00 | 58 | 1015.2 |
| 20260905231043 | 63 | 312 | 6.1 | 9.6 | 0.00 | 0.00 | 0.00 | 59 | 1015.3 |
| 20260905230546 | 63 | 311 | 5.2 | 10.4 | 0.00 | 0.00 | 0.00 | 59 | 1015.4 |
| 20260905230058 | 63 | 296 | 6.1 | 10.4 | 0.00 | 0.00 | 0.00 | 59 | 1015.4 |
| 20260905225542 | 64 | 299 | 7.0 | 9.6 | 0.00 | 0.00 | 0.00 | 59 | 1015.4 |
| 20260905225043 | 64 | 288 | 6.1 | 9.6 | 0.00 | 0.00 | 0.00 | 60 | 1015.6 |
| 20260905224600 | 64 | 314 | 6.1 | 9.6 | 0.00 | 0.00 | 0.00 | 58 | 1015.4 |
| 20260905224042 | 65 | 303 | 6.1 | 9.6 | 0.00 | 0.00 | 0.00 | 58 | 1015.4 |
| 20260905223542 | 65 | 311 | 6.1 | 9.6 | 0.00 | 0.00 | 0.00 | 57 | 1015.5 |
| 20260905223057 | 66 | 300 | 6.1 | 11.3 | 0.00 | 0.00 | 0.00 | 56 | 1015.4 |
| 20260905222544 | 66 | 338 | 7.0 | 11.3 | 0.00 | 0.00 | 0.00 | 55 | 1015.5 |
| 20260905222043 | 66 | 311 | 6.1 | 10.4 | 0.00 | 0.00 | 0.00 | 55 | 1015.4 |
| 20260905221605 | 66 | 309 | 4.3 | 8.7 | 0.00 | 0.00 | 0.00 | 56 | 1015.4 |
| 20260905221045 | 66 | 317 | 5.2 | 7.8 | 0.00 | 0.00 | 0.00 | 57 | 1015.4 |
| 20260905220544 | 67 | 311 | 4.3 | 8.7 | 0.00 | 0.00 | 0.00 | 57 | 1015.4 |
| 20260905220106 | 67 | 300 | 4.3 | 8.7 | 0.00 | 0.00 | 0.00 | 58 | 1015.4 |
| 20260905215543 | 67 | 315 | 4.3 | 8.7 | 0.00 | 0.00 | 0.00 | 58 | 1015.5 |
| 20260905215047 | 67 | 313 | 5.2 | 9.6 | 0.00 | 0.00 | 0.00 | 57 | 1015.6 |
| 20260905214557 | 68 | 304 | 6.1 | 9.6 | 0.00 | 0.00 | 0.00 | 56 | 1015.5 |
| 20260905214042 | 68 | 319 | 5.2 | 8.7 | 0.00 | 0.00 | 0.00 | 54 | 1015.5 |
| 20260905213546 | 69 | 313 | 5.2 | 8.7 | 0.00 | 0.00 | 0.00 | 53 | 1015.5 |
| 20260905213058 | 69 | 323 | 4.3 | 8.7 | 0.00 | 0.00 | 0.00 | 52 | 1015.5 |
| 20260905212543 | 69 | 303 | 2.6 | 6.1 | 0.00 | 0.00 | 0.00 | 52 | 1015.6 |
| 20260905212043 | 69 | 308 | 2.6 | 7.0 | 0.00 | 0.00 | 0.00 | 51 | 1015.5 |
| 20260905211551 | 69 | 290 | 3.5 | 7.0 | 0.00 | 0.00 | 0.00 | 50 | 1015.6 |
| 20260905211043 | 69 | 311 | 3.5 | 6.1 | 0.00 | 0.00 | 0.00 | 52 | 1015.5 |
| 20260905210546 | 69 | 319 | 2.6 | 7.0 | 0.00 | 0.00 | 0.00 | 51 | 1015.6 |
| 20260905210103 | 69 | 294 | 3.5 | 7.0 | 0.00 | 0.00 | 0.00 | 49 | 1015.6 |
| 20260905205544 | 70 | 292 | 2.6 | 7.0 | 0.00 | 0.00 | 0.00 | 49 | 1015.6 |
| 20260905205044 | 70 | 312 | 2.6 | 7.0 | 0.00 | 0.00 | 0.00 | 47 | 1015.6 |
| 20260905204602 | 70 | 311 | 2.6 | 7.8 | 0.00 | 0.00 | 0.00 | 48 | 1015.6 |
| 20260905204045 | 70 | 319 | 3.5 | 7.8 | 0.00 | 0.00 | 0.00 | 47 | 1015.6 |
| 20260905203542 | 70 | 291 | 3.5 | 7.8 | 0.00 | 0.00 | 0.00 | 48 | 1015.6 |
| 20260905203057 | 70 | 323 | 2.6 | 7.0 | 0.00 | 0.00 | 0.00 | 48 | 1015.6 |
| 20260905202544 | 69 | 328 | 3.5 | 7.0 | 0.00 | 0.00 | 0.00 | 47 | 1015.6 |
| 20260905202043 | 69 | 298 | 2.6 | 6.1 | 0.00 | 0.00 | 0.00 | 50 | 1015.6 |
| 20260905201553 | 69 | 320 | 2.6 | 7.0 | 0.00 | 0.00 | 0.00 | 51 | 1015.6 |
| 20260905201044 | 69 | 309 | 3.5 | 7.0 | 0.00 | 0.00 | 0.00 | 50 | 1015.7 |
| 20260905200543 | 69 | 297 | 1.7 | 6.1 | 0.00 | 0.00 | 0.00 | 50 | 1015.7 |
| 20260905200104 | 69 | 311 | 2.6 | 6.1 | 0.00 | 0.00 | 0.00 | 51 | 1015.7 |
| 20260905195542 | 69 | 304 | 2.6 | 6.1 | 0.00 | 0.00 | 0.00 | 51 | 1015.8 |
| 20260905195043 | 70 | 315 | 3.5 | 6.1 | 0.00 | 0.00 | 0.00 | 49 | 1015.9 |
| 20260905194557 | 70 | 317 | 2.6 | 6.1 | 0.00 | 0.00 | 0.00 | 51 | 1015.8 |
| 20260905194044 | 69 | 317 | 1.7 | 7.0 | 0.00 | 0.00 | 0.00 | 51 | 1016.0 |
| 20260905193543 | 69 | 300 | 1.7 | 7.0 | 0.00 | 0.00 | 0.00 | 51 | 1016.0 |
| 20260905193107 | 69 | 334 | 1.7 | 7.0 | 0.00 | 0.00 | 0.00 | 51 | 1016.1 |
| 20260905192543 | 69 | 331 | 1.7 | 4.3 | 0.00 | 0.00 | 0.00 | 49 | 1016.1 |
| 20260905192044 | 69 | 310 | 0.9 | 5.2 | 0.00 | 0.00 | 0.00 | 50 | 1016.1 |
| 20260905191558 | 68 | 302 | 0.9 | 6.1 | 0.00 | 0.00 | 0.00 | 51 | 1016.2 |
| 20260905191045 | 68 | 221 | 1.7 | 6.1 | 0.00 | 0.00 | 0.00 | 50 | 1016.2 |
| 20260905190542 | 68 | 314 | 0.9 | 6.1 | 0.00 | 0.00 | 0.00 | 50 | 1016.2 |
| 20260905190103 | 68 | 313 | 2.6 | 6.1 | 0.00 | 0.00 | 0.00 | 49 | 1016.2 |
| 20260905185544 | 68 | 320 | 1.7 | 4.3 | 0.00 | 0.00 | 0.00 | 49 | 1016.3 |
| 20260905185046 | 68 | 319 | 1.7 | 4.3 | 0.00 | 0.00 | 0.00 | 49 | 1016.2 |
| 20260905184558 | 68 | 319 | 1.7 | 4.3 | 0.00 | 0.00 | 0.00 | 47 | 1016.3 |
| 20260905184044 | 68 | 349 | 0.9 | 4.3 | 0.00 | 0.00 | 0.00 | 47 | 1016.1 |
| 20260905183546 | 68 | 326 | 1.7 | 3.5 | 0.00 | 0.00 | 0.00 | 45 | 1016.2 |
| 20260905183059 | 68 | 294 | 0.9 | 3.5 | 0.00 | 0.00 | 0.00 | 43 | 1016.1 |
| 20260905182544 | 67 | 232 | 0.9 | 3.5 | 0.00 | 0.00 | 0.00 | 43 | 1016.1 |
| 20260905182045 | 67 | 300 | 1.7 | 3.5 | 0.00 | 0.00 | 0.00 | 44 | 1016.0 |
| 20260905181605 | 66 | 318 | 0.9 | 3.5 | 0.00 | 0.00 | 0.00 | 45 | 1016.1 |
| 20260905181045 | 66 | 0 | 1.7 | 3.5 | 0.00 | 0.00 | 0.00 | 47 | 1016.0 |
| 20260905180545 | 66 | 342 | 0.9 | 3.5 | 0.00 | 0.00 | 0.00 | 49 | 1016.0 |
| 20260905180051 | 66 | 311 | 0.9 | 3.5 | 0.00 | 0.00 | 0.00 | 48 | 1016.0 |
| 20260905175545 | 65 | 309 | 0.9 | 3.5 | 0.00 | 0.00 | 0.00 | 50 | 1016.0 |
| 20260905175045 | 65 | 285 | 0.9 | 3.5 | 0.00 | 0.00 | 0.00 | 51 | 1015.9 |
| 20260905174557 | 65 | 238 | 0.9 | 2.6 | 0.00 | 0.00 | 0.00 | 49 | 1015.9 |
| 20260905174046 | 65 | 271 | 0.9 | 2.6 | 0.00 | 0.00 | 0.00 | 49 | 1015.9 |
| 20260905173545 | 65 | 142 | 0.9 | 1.7 | 0.00 | 0.00 | 0.00 | 49 | 1015.9 |
| 20260905173052 | 64 | 0 | 0.0 | 1.7 | 0.00 | 0.00 | 0.00 | 49 | 1015.8 |
| 20260905172545 | 64 | 0 | 0.0 | 1.7 | 0.00 | 0.00 | 0.00 | 51 | 1015.8 |
| 20260905172045 | 64 | 0 | 0.0 | 1.7 | 0.00 | 0.00 | 0.00 | 51 | 1015.7 |
| 20260905171603 | 64 | 142 | 0.9 | 1.7 | 0.00 | 0.00 | 0.00 | 51 | 1015.7 |
| 20260905171045 | 63 | 142 | 0.0 | 4.3 | 0.00 | 0.00 | 0.00 | 51 | 1015.7 |
| 20260905170545 | 63 | 0 | 0.9 | 4.3 | 0.00 | 0.00 | 0.00 | 51 | 1015.6 |
| 20260905170107 | 63 | 125 | 1.7 | 4.3 | 0.00 | 0.00 | 0.00 | 46 | 1015.6 |
| 20260905165547 | 62 | 150 | 0.9 | 4.3 | 0.00 | 0.00 | 0.00 | 54 | 1015.6 |
| 20260905165044 | 62 | 147 | 1.7 | 4.3 | 0.00 | 0.00 | 0.00 | 54 | 1015.4 |
| 20260905164559 | 61 | 153 | 2.6 | 4.3 | 0.00 | 0.00 | 0.00 | 56 | 1015.5 |
| 20260905164045 | 61 | 154 | 0.9 | 3.5 | 0.00 | 0.00 | 0.00 | 55 | 1015.4 |
| 20260905163544 | 60 | 0 | 0.0 | 2.6 | 0.00 | 0.00 | 0.00 | 52 | 1015.5 |
| 20260905163052 | 60 | 0 | 0.0 | 2.6 | 0.00 | 0.00 | 0.00 | 53 | 1015.4 |
| 20260905162547 | 60 | 333 | 0.9 | 2.6 | 0.00 | 0.00 | 0.00 | 53 | 1015.5 |
| 20260905162045 | 60 | 333 | 0.9 | 1.7 | 0.00 | 0.00 | 0.00 | 53 | 1015.5 |
| 20260905161550 | 60 | 160 | 0.9 | 1.7 | 0.00 | 0.00 | 0.00 | 52 | 1015.6 |
| 20260905161045 | 61 | 160 | 0.9 | 1.7 | 0.00 | 0.00 | 0.00 | 51 | 1015.6 |
| 20260905160545 | 61 | 160 | 0.9 | 1.7 | 0.00 | 0.00 | 0.00 | 47 | 1015.4 |
| 20260905160101 | 61 | 160 | 0.0 | 2.6 | 0.00 | 0.00 | 0.00 | 47 | 1015.5 |
| 20260905155545 | 61 | 0 | 0.0 | 3.5 | 0.00 | 0.00 | 0.00 | 46 | 1015.4 |
| 20260905155046 | 61 | 160 | 0.9 | 3.5 | 0.00 | 0.00 | 0.00 | 44 | 1015.4 |
| 20260905154600 | 61 | 160 | 0.9 | 3.5 | 0.00 | 0.00 | 0.00 | 44 | 1015.3 |
| 20260905154045 | 61 | 160 | 1.7 | 4.3 | 0.00 | 0.00 | 0.00 | 43 | 1015.3 |
| 20260905153548 | 61 | 167 | 1.7 | 4.3 | 0.00 | 0.00 | 0.00 | 44 | 1015.2 |
| 20260905153053 | 60 | 158 | 0.9 | 4.3 | 0.00 | 0.00 | 0.00 | 44 | 1015.3 |
| 20260905152545 | 60 | 158 | 1.7 | 4.3 | 0.00 | 0.00 | 0.00 | 45 | 1015.2 |
| 20260905152046 | 60 | 161 | 2.6 | 4.3 | 0.00 | 0.00 | 0.00 | 45 | 1015.2 |
| 20260905151603 | 60 | 161 | 0.0 | 1.7 | 0.00 | 0.00 | 0.00 | 47 | 1015.0 |
| 20260905151045 | 59 | 161 | 0.9 | 1.7 | 0.00 | 0.00 | 0.00 | 47 | 1015.1 |